QPF
0.01 0.01 0.00 0.00 0.00 0.00 0.01 0.01 0.01 0.01 0.01 0.01 0.01 0.00 0.00 0.00 0.00 0.01 0.02 0.01 0.01 0.01 0.01 0.01 0.01 0.01 0.01 0.02 0.02 0.02 0.02 0.02 0.02 0.02 0.03 0.05 0.07 0.08
0.01 0.00 0.00 0.00 0.00 0.00 0.00 0.00 0.00 0.00 0.01 0.01 0.00 0.00 0.00 0.00 0.00 0.00 0.01 0.01 0.01 0.01 0.01 0.01 0.01 0.01 0.01 0.00 0.00 0.00 0.01 0.01 0.01 0.02 0.02 0.03 0.04 0.05
0.01 0.01 0.01 0.00 0.00 0.00 0.00 0.00 0.00 0.00 0.00 0.00 0.00 0.00 0.00 0.00 0.01 0.01 0.01 0.01 0.00 0.00 0.00 0.00 0.00 0.00 0.00 0.00 0.00 0.00 0.00 0.00 0.00 0.01 0.01 0.01 0.01 0.02
0.01 0.01 0.01 0.01 0.00 0.00 0.00 0.00 0.00 0.00 0.00 0.01 0.00 0.00 0.00 0.00 0.00 0.01 0.01 0.01 0.00 0.00 0.00 0.01 0.00 0.00 0.00 0.00 0.00 0.00 0.00 0.00 0.00 0.00 0.00 0.00 0.00 0.01
0.01 0.01 0.01 0.01 0.00 0.00 0.00 0.00 0.00 0.00 0.00 0.00 0.00 0.00 0.00 0.00 0.00 0.00 0.00 0.00 0.00 0.00 0.00 0.00 0.00 0.00 0.00 0.00 0.00 0.00 0.00 0.00 0.00 0.00 0.00 0.00 0.00 0.00
0.00 0.01 0.01 0.00 0.00 0.00 0.00 0.00 0.00 0.00 0.00 0.00 0.00 0.00 0.00 0.00 0.00 0.00 0.00 0.00 0.00 0.00 0.00 0.00 0.00 0.00 0.00 0.00 0.00 0.00 0.00 0.00 0.00 0.00 0.00 0.00 0.00 0.00
0.01 0.01 0.01 0.00 0.00 0.00 0.00 0.00 0.00 0.00 0.00 0.00 0.00 0.00 0.00 0.00 0.00 0.00 0.00 0.00 0.00 0.00 0.00 0.00 0.00 0.00 0.00 0.00 0.00 0.00 0.00 0.00 0.00 0.00 0.00 0.00 0.00 0.00
0.01 0.01 0.01 0.01 0.01 0.01 0.00 0.00 0.00 0.00 0.00 0.00 0.00 0.00 0.00 0.00 0.00 0.00 0.00 0.00 0.00 0.00 0.00 0.00 0.00 0.00 0.00 0.00 0.00 0.00 0.00 0.00 0.00 0.00 0.00 0.00 0.00 0.00
0.00 0.00 0.00 0.00 0.01 0.01 0.01 0.00 0.00 0.00 0.00 0.00 0.00 0.00 0.00 0.00 0.00 0.00 0.00 0.00 0.00 0.00 0.00 0.00 0.00 0.00 0.00 0.00 0.00 0.00 0.00 0.00 0.00 0.00 0.00 0.00 0.00 0.00
0.00 0.00 0.00 0.00 0.00 0.01 0.01 0.01 0.01 0.00 0.00 0.00 0.00 0.00 0.00 0.00 0.00 0.00 0.00 0.00 0.00 0.00 0.00 0.00 0.00 0.00 0.00 0.00 0.00 0.00 0.00 0.00 0.00 0.00 0.00 0.00 0.00 0.00
0.00 0.00 0.00 0.00 0.01 0.01 0.01 0.01 0.01 0.00 0.00 0.00 0.00 0.00 0.00 0.00 0.00 0.00 0.00 0.00 0.00 0.00 0.00 0.00 0.00 0.00 0.00 0.00 0.00 0.00 0.00 0.00 0.00 0.00 0.00 0.00 0.00 0.00
0.00 0.00 0.01 0.01 0.01 0.01 0.01 0.02 0.01 0.00 0.00 0.00 0.00 0.00 0.00 0.00 0.00 0.00 0.00 0.00 0.00 0.00 0.00 0.00 0.00 0.00 0.00 0.00 0.00 0.00 0.00 0.00 0.00 0.00 0.00 0.00 0.00 0.00
0.00 0.01 0.00 0.01 0.01 0.01 0.01 0.01 0.01 0.01 0.00 0.00 0.00 0.00 0.00 0.00 0.00 0.00 0.00 0.00 0.00 0.00 0.00 0.00 0.00 0.00 0.00 0.00 0.00 0.00 0.00 0.00 0.00 0.00 0.00 0.00 0.00 0.00
0.00 0.00 0.00 0.00 0.00 0.01 0.01 0.01 0.01 0.01 0.01 0.00 0.00 0.00 0.00 0.00 0.00 0.00 0.00 0.00 0.00 0.00 0.00 0.00 0.00 0.00 0.00 0.00 0.00 0.00 0.00 0.00 0.00 0.00 0.00 0.00 0.00 0.00
0.00 0.00 0.00 0.00 0.01 0.01 0.01 0.01 0.01 0.01 0.00 0.00 0.00 0.00 0.00 0.00 0.00 0.00 0.00 0.00 0.00 0.00 0.00 0.00 0.00 0.00 0.01 0.01 0.01 0.00 0.00 0.00 0.00 0.00 0.00 0.00 0.00 0.00
0.00 0.00 0.00 0.00 0.00 0.00 0.00 0.00 0.00 0.00 0.00 0.00 0.00 0.00 0.00 0.00 0.00 0.00 0.00 0.00 0.00 0.00 0.00 0.00 0.00 0.00 0.01 0.01 0.01 0.00 0.00 0.00 0.00 0.00 0.00 0.00 0.00 0.00
0.01 0.01 0.00 0.00 0.00 0.00 0.00 0.00 0.00 0.00 0.00 0.00 0.00 0.00 0.00 0.00 0.00 0.00 0.00 0.00 0.00 0.00 0.00 0.00 0.00 0.00 0.00 0.01 0.01 0.00 0.00 0.00 0.00 0.00 0.01 0.00 0.00 0.00
0.02 0.02 0.02 0.01 0.01 0.01 0.01 0.00 0.00 0.00 0.00 0.00 0.00 0.00 0.00 0.00 0.00 0.00 0.00 0.01 0.01 0.00 0.00 0.00 0.00 0.00 0.00 0.00 0.00 0.00 0.00 0.01 0.01 0.01 0.01 0.01 0.01 0.00
0.02 0.02 0.02 0.01 0.00 0.01 0.01 0.01 0.01 0.01 0.01 0.01 0.01 0.01 0.00 0.00 0.00 0.01 0.01 0.01 0.01 0.01 0.01 0.01 0.01 0.01 0.01 0.01 0.00 0.00 0.01 0.01 0.01 0.01 0.01 0.01 0.01 0.01
0.00 0.00 0.01 0.01 0.00 0.00 0.00 0.01 0.01 0.01 0.00 0.01 0.01 0.01 0.00 0.00 0.01 0.01 0.01 0.01 0.01 0.01 0.01 0.01 0.01 0.01 0.01 0.01 0.01 0.00 0.01 0.01 0.01 0.01 0.01 0.01 0.01 0.01
0.00 0.00 0.00 0.00 0.00 0.00 0.01 0.01 0.01 0.00 0.00 0.00 0.00 0.00 0.00 0.01 0.01 0.01 0.01 0.01 0.01 0.01 0.01 0.01 0.01 0.01 0.01 0.01 0.01 0.01 0.01 0.01 0.01 0.02 0.02 0.02 0.02 0.02
0.00 0.00 0.00 0.00 0.01 0.01 0.01 0.01 0.00 0.00 0.00 0.00 0.00 0.01 0.01 0.01 0.01 0.01 0.01 0.01 0.01 0.01 0.01 0.01 0.01 0.01 0.01 0.01 0.01 0.01 0.01 0.01 0.01 0.01 0.01 0.02 0.03 0.03
0.01 0.01 0.00 0.01 0.01 0.01 0.01 0.00 0.00 0.00 0.00 0.00 0.00 0.01 0.01 0.01 0.01 0.01 0.01 0.01 0.01 0.01 0.01 0.01 0.01 0.01 0.01 0.01 0.01 0.01 0.01 0.01 0.01 0.01 0.01 0.02 0.02 0.04
MSLP
1024.73 1024.84 1025.04 1025.32 1025.65 1026.02 1026.37 1026.68 1026.94 1027.14 1027.28 1027.39 1027.47 1027.55 1027.63 1027.72 1027.81 1027.89 1027.94 1027.95 1027.90 1027.81 1027.67 1027.49 1027.30 1027.09 1026.89 1026.68 1026.47 1026.25 1026.01 1025.75 1025.44 1025.11 1024.75 1024.36 1023.97 1023.57
1025.55 1025.59 1025.70 1025.88 1026.12 1026.38 1026.65 1026.90 1027.12 1027.30 1027.44 1027.56 1027.66 1027.76 1027.86 1027.96 1028.06 1028.14 1028.19 1028.21 1028.19 1028.12 1028.02 1027.89 1027.74 1027.58 1027.42 1027.25 1027.06 1026.85 1026.60 1026.32 1025.99 1025.61 1025.21 1024.78 1024.34 1023.90
1026.36 1026.36 1026.41 1026.51 1026.66 1026.84 1027.03 1027.22 1027.39 1027.54 1027.67 1027.78 1027.88 1027.97 1028.07 1028.16 1028.24 1028.31 1028.35 1028.36 1028.34 1028.30 1028.23 1028.15 1028.06 1027.96 1027.85 1027.73 1027.59 1027.41 1027.17 1026.89 1026.54 1026.14 1025.70 1025.23 1024.75 1024.26
1027.12 1027.11 1027.13 1027.18 1027.27 1027.38 1027.51 1027.64 1027.77 1027.88 1027.98 1028.08 1028.16 1028.24 1028.31 1028.37 1028.42 1028.46 1028.47 1028.46 1028.43 1028.38 1028.33 1028.28 1028.24 1028.19 1028.15 1028.08 1027.99 1027.85 1027.65 1027.38 1027.04 1026.63 1026.17 1025.67 1025.15 1024.62
1027.80 1027.80 1027.82 1027.85 1027.91 1027.98 1028.07 1028.16 1028.25 1028.33 1028.41 1028.47 1028.53 1028.58 1028.62 1028.65 1028.65 1028.64 1028.60 1028.55 1028.48 1028.41 1028.36 1028.31 1028.29 1028.28 1028.27 1028.26 1028.21 1028.12 1027.96 1027.72 1027.41 1027.01 1026.55 1026.03 1025.48 1024.92
1028.38 1028.40 1028.43 1028.47 1028.52 1028.58 1028.65 1028.72 1028.78 1028.85 1028.91 1028.96 1028.99 1029.01 1029.02 1029.00 1028.95 1028.88 1028.78 1028.67 1028.55 1028.44 1028.34 1028.28 1028.24 1028.23 1028.24 1028.25 1028.24 1028.18 1028.06 1027.87 1027.58 1027.21 1026.77 1026.26 1025.70 1025.13
1028.81 1028.87 1028.93 1028.99 1029.06 1029.12 1029.19 1029.26 1029.33 1029.39 1029.44 1029.48 1029.50 1029.50 1029.47 1029.41 1029.31 1029.18 1029.03 1028.85 1028.67 1028.49 1028.34 1028.22 1028.15 1028.11 1028.10 1028.10 1028.09 1028.06 1027.96 1027.80 1027.55 1027.21 1026.79 1026.30 1025.76 1025.18
1029.06 1029.16 1029.26 1029.36 1029.46 1029.55 1029.65 1029.73 1029.81 1029.88 1029.94 1029.97 1029.99 1029.98 1029.93 1029.84 1029.72 1029.54 1029.34 1029.10 1028.85 1028.61 1028.39 1028.21 1028.06 1027.96 1027.90 1027.86 1027.83 1027.78 1027.69 1027.54 1027.32 1027.01 1026.62 1026.16 1025.63 1025.07
1029.11 1029.25 1029.40 1029.54 1029.68 1029.82 1029.95 1030.07 1030.17 1030.26 1030.33 1030.38 1030.41 1030.40 1030.35 1030.25 1030.11 1029.91 1029.68 1029.40 1029.11 1028.81 1028.52 1028.26 1028.04 1027.86 1027.73 1027.62 1027.53 1027.44 1027.32 1027.15 1026.93 1026.64 1026.28 1025.84 1025.34 1024.79
1028.95 1029.14 1029.33 1029.52 1029.72 1029.90 1030.08 1030.24 1030.38 1030.49 1030.59 1030.66 1030.70 1030.70 1030.66 1030.57 1030.43 1030.24 1030.00 1029.71 1029.40 1029.06 1028.73 1028.41 1028.11 1027.85 1027.62 1027.43 1027.26 1027.09 1026.91 1026.71 1026.46 1026.17 1025.81 1025.38 1024.90 1024.37
1028.61 1028.84 1029.08 1029.32 1029.57 1029.81 1030.04 1030.24 1030.42 1030.57 1030.69 1030.78 1030.84 1030.86 1030.83 1030.76 1030.64 1030.47 1030.25 1029.98 1029.67 1029.33 1028.97 1028.62 1028.26 1027.93 1027.62 1027.33 1027.06 1026.80 1026.54 1026.27 1025.98 1025.65 1025.28 1024.86 1024.39 1023.87
1028.13 1028.39 1028.68 1028.98 1029.28 1029.58 1029.85 1030.10 1030.32 1030.51 1030.65 1030.76 1030.83 1030.86 1030.86 1030.81 1030.71 1030.57 1030.38 1030.15 1029.87 1029.56 1029.21 1028.84 1028.46 1028.07 1027.69 1027.31 1026.94 1026.58 1026.23 1025.88 1025.52 1025.15 1024.75 1024.31 1023.84 1023.33
1027.54 1027.85 1028.18 1028.53 1028.88 1029.23 1029.56 1029.86 1030.12 1030.34 1030.50 1030.63 1030.71 1030.75 1030.74 1030.71 1030.64 1030.53 1030.38 1030.19 1029.96 1029.68 1029.36 1029.01 1028.62 1028.21 1027.78 1027.33 1026.88 1026.44 1025.99 1025.55 1025.12 1024.69 1024.25 1023.80 1023.32 1022.82
1026.87 1027.21 1027.59 1027.99 1028.40 1028.81 1029.20 1029.54 1029.84 1030.09 1030.28 1030.41 1030.49 1030.53 1030.52 1030.49 1030.43 1030.34 1030.22 1030.07 1029.89 1029.66 1029.39 1029.07 1028.70 1028.29 1027.83 1027.34 1026.84 1026.32 1025.79 1025.28 1024.78 1024.29 1023.81 1023.33 1022.85 1022.35
1026.12 1026.49 1026.91 1027.37 1027.84 1028.30 1028.75 1029.15 1029.50 1029.78 1029.99 1030.14 1030.22 1030.24 1030.23 1030.18 1030.11 1030.03 1029.93 1029.80 1029.66 1029.48 1029.25 1028.98 1028.64 1028.25 1027.79 1027.29 1026.75 1026.18 1025.61 1025.03 1024.48 1023.94 1023.43 1022.93 1022.44 1021.95
1025.26 1025.67 1026.13 1026.64 1027.17 1027.70 1028.21 1028.68 1029.08 1029.41 1029.65 1029.81 1029.89 1029.91 1029.88 1029.81 1029.73 1029.63 1029.53 1029.42 1029.30 1029.15 1028.96 1028.73 1028.43 1028.07 1027.63 1027.14 1026.59 1026.00 1025.40 1024.79 1024.20 1023.62 1023.08 1022.57 1022.08 1021.59
1024.27 1024.72 1025.22 1025.77 1026.36 1026.96 1027.54 1028.08 1028.55 1028.94 1029.23 1029.42 1029.52 1029.54 1029.50 1029.41 1029.30 1029.19 1029.07 1028.96 1028.84 1028.71 1028.55 1028.35 1028.09 1027.76 1027.36 1026.88 1026.35 1025.76 1025.15 1024.53 1023.92 1023.33 1022.77 1022.24 1021.74 1021.25
1023.15 1023.61 1024.15 1024.75 1025.40 1026.07 1026.72 1027.34 1027.89 1028.34 1028.70 1028.94 1029.07 1029.11 1029.07 1028.99 1028.87 1028.73 1028.60 1028.47 1028.35 1028.22 1028.08 1027.90 1027.67 1027.37 1027.00 1026.56 1026.05 1025.48 1024.88 1024.26 1023.64 1023.04 1022.46 1021.91 1021.39 1020.88
1021.91 1022.39 1022.96 1023.60 1024.30 1025.03 1025.75 1026.45 1027.08 1027.61 1028.04 1028.35 1028.54 1028.62 1028.61 1028.54 1028.43 1028.29 1028.15 1028.02 1027.89 1027.76 1027.62 1027.46 1027.24 1026.97 1026.63 1026.22 1025.74 1025.20 1024.61 1024.00 1023.37 1022.75 1022.15 1021.57 1021.01 1020.46
1020.61 1021.11 1021.69 1022.37 1023.10 1023.88 1024.67 1025.43 1026.14 1026.75 1027.26 1027.64 1027.91 1028.05 1028.10 1028.07 1027.99 1027.88 1027.75 1027.62 1027.50 1027.37 1027.23 1027.07 1026.88 1026.62 1026.31 1025.92 1025.46 1024.94 1024.36 1023.74 1023.11 1022.46 1021.83 1021.20 1020.59 1019.98
1019.36 1019.86 1020.46 1021.15 1021.91 1022.72 1023.54 1024.36 1025.12 1025.80 1026.38 1026.85 1027.19 1027.42 1027.54 1027.58 1027.55 1027.49 1027.40 1027.30 1027.19 1027.08 1026.95 1026.80 1026.61 1026.37 1026.06 1025.69 1025.24 1024.73 1024.15 1023.53 1022.87 1022.19 1021.50 1020.81 1020.12 1019.44
1018.25 1018.75 1019.35 1020.04 1020.80 1021.62 1022.46 1023.30 1024.09 1024.82 1025.46 1025.99 1026.41 1026.72 1026.93 1027.06 1027.11 1027.12 1027.09 1027.04 1026.96 1026.88 1026.77 1026.63 1026.44 1026.21 1025.91 1025.54 1025.09 1024.57 1023.99 1023.34 1022.65 1021.93 1021.18 1020.41 1019.64 1018.87
1017.36 1017.86 1018.45 1019.12 1019.87 1020.68 1021.51 1022.33 1023.13 1023.88 1024.55 1025.14 1025.62 1026.01 1026.31 1026.52 1026.67 1026.76 1026.81 1026.82 1026.80 1026.75 1026.66 1026.54 1026.36 1026.13 1025.82 1025.45 1024.99 1024.46 1023.86 1023.19 1022.46 1021.68 1020.87 1020.03 1019.18 1018.32
Thickness
5685 5684 5682 5681 5680 5679 5678 5677 5674 5671 5667 5663 5661 5658 5656 5654 5651 5651 5650 5647 5646 5645 5644 5644 5643 5643 5642 5642 5642 5641 5641 5641 5640 5640 5641 5641 5641 5641
5679 5679 5677 5677 5676 5674 5674 5673 5672 5670 5665 5660 5657 5654 5651 5650 5647 5646 5644 5642 5640 5639 5638 5637 5636 5635 5635 5634 5633 5632 5632 5631 5631 5631 5630 5630 5630 5630
5677 5675 5673 5672 5671 5670 5669 5667 5666 5665 5659 5656 5654 5651 5648 5646 5644 5641 5640 5639 5636 5633 5632 5631 5630 5629 5627 5626 5625 5624 5623 5622 5621 5620 5620 5619 5619 5619
5672 5671 5669 5667 5666 5665 5663 5662 5660 5659 5656 5652 5650 5646 5644 5641 5639 5637 5636 5634 5631 5628 5626 5624 5623 5621 5620 5618 5617 5615 5614 5612 5610 5609 5608 5608 5607 5607
5668 5666 5664 5663 5661 5660 5658 5657 5655 5653 5650 5648 5645 5641 5639 5636 5634 5632 5631 5628 5627 5624 5620 5618 5616 5614 5612 5610 5608 5606 5604 5602 5600 5598 5597 5596 5595 5595
5663 5662 5660 5659 5657 5656 5654 5652 5650 5648 5645 5643 5639 5636 5633 5631 5629 5627 5625 5623 5621 5618 5615 5612 5609 5607 5605 5602 5600 5597 5594 5592 5589 5587 5586 5584 5584 5583
5658 5656 5653 5651 5649 5648 5648 5646 5644 5642 5640 5637 5634 5632 5629 5625 5623 5621 5619 5618 5615 5612 5610 5607 5605 5602 5599 5595 5591 5587 5584 5581 5578 5576 5574 5573 5572 5572
5653 5651 5648 5645 5642 5639 5637 5636 5635 5635 5634 5632 5629 5627 5624 5620 5616 5614 5612 5611 5609 5606 5602 5601 5597 5594 5590 5587 5581 5577 5573 5569 5567 5565 5563 5562 5561 5560
5648 5646 5643 5640 5638 5637 5633 5629 5627 5624 5623 5624 5623 5620 5617 5613 5609 5607 5604 5602 5599 5597 5593 5593 5590 5586 5581 5577 5571 5565 5561 5558 5555 5552 5551 5549 5548 5548
5642 5640 5638 5636 5633 5631 5630 5627 5624 5621 5617 5615 5614 5611 5607 5604 5601 5598 5596 5593 5591 5587 5583 5582 5580 5577 5572 5567 5561 5555 5550 5547 5544 5541 5539 5537 5536 5536
5635 5633 5631 5629 5625 5622 5622 5621 5618 5615 5609 5605 5603 5600 5596 5593 5590 5588 5587 5585 5584 5580 5574 5571 5569 5566 5563 5558 5552 5545 5541 5537 5534 5531 5528 5526 5524 5524
5629 5626 5622 5621 5617 5615 5616 5614 5611 5608 5604 5601 5596 5593 5590 5586 5581 5579 5577 5575 5573 5570 5565 5559 5557 5553 5553 5550 5543 5537 5533 5529 5525 5522 5519 5515 5512 5512
5625 5622 5618 5613 5610 5607 5606 5606 5603 5599 5597 5595 5591 5588 5584 5580 5576 5571 5567 5563 5560 5557 5552 5546 5544 5540 5537 5536 5533 5527 5523 5519 5516 5513 5509 5506 5502 5499
5620 5617 5612 5606 5603 5600 5598 5595 5592 5589 5588 5586 5583 5580 5576 5572 5567 5562 5557 5552 5548 5544 5539 5534 5530 5526 5523 5522 5521 5518 5513 5508 5505 5503 5500 5496 5493 5489
5613 5608 5604 5600 5596 5593 5589 5586 5584 5582 5581 5578 5575 5572 5567 5562 5557 5552 5548 5543 5538 5533 5528 5523 5518 5514 5510 5509 5508 5505 5502 5500 5495 5492 5489 5486 5483 5481
5605 5601 5596 5593 5590 5586 5583 5580 5577 5575 5572 5569 5566 5562 5558 5553 5548 5543 5539 5534 5530 5526 5519 5513 5508 5503 5500 5498 5495 5494 5492 5489 5485 5481 5477 5475 5472 5469
5601 5597 5594 5591 5587 5584 5580 5576 5572 5568 5564 5560 5557 5553 5549 5544 5539 5534 5528 5524 5520 5517 5512 5505 5499 5494 5490 5487 5486 5485 5482 5478 5474 5470 5466 5465 5462 5459
5595 5594 5591 5588 5584 5581 5576 5571 5567 5562 5558 5553 5549 5545 5541 5536 5531 5525 5519 5515 5510 5506 5501 5496 5490 5487 5484 5482 5475 5473 5470 5467 5463 5459 5455 5454 5454 5451
5590 5590 5587 5584 5579 5575 5570 5565 5561 5556 5551 5546 5542 5537 5533 5528 5522 5517 5512 5506 5502 5497 5492 5486 5482 5477 5474 5474 5471 5461 5457 5455 5452 5449 5446 5443 5442 5441
5587 5585 5582 5578 5574 5569 5564 5559 5554 5549 5544 5539 5534 5529 5524 5519 5514 5509 5503 5497 5493 5488 5483 5478 5473 5467 5463 5460 5459 5455 5447 5443 5440 5437 5435 5433 5431 5429
5583 5579 5576 5572 5567 5562 5557 5552 5547 5542 5537 5532 5527 5522 5516 5511 5506 5500 5495 5488 5482 5478 5474 5470 5464 5456 5452 5449 5448 5448 5442 5434 5428 5424 5423 5421 5421 5422
5579 5574 5570 5565 5561 5556 5550 5545 5540 5535 5530 5525 5520 5515 5509 5503 5498 5492 5486 5481 5475 5470 5465 5461 5455 5449 5444 5441 5440 5438 5434 5429 5423 5417 5412 5408 5407 5409
5573 5569 5564 5559 5554 5548 5543 5538 5534 5529 5523 5518 5513 5507 5501 5495 5489 5483 5477 5472 5466 5461 5457 5452 5448 5442 5437 5433 5430 5428 5424 5421 5417 5414 5410 5404 5399 5397